Location: Córrego Montividiu
(13.2496°S, 48.8603°W)
Time: 18:26:58
(UTC+00:00)

USA 238 - Pass Details

Date: 11 March 2026
Orbit: 883 x 1328 km, 63.4° (Epoch: 10 January)

Event Time Altitude Azimuth Distance (km) Brightness Sun altitude
Rises 21:57:12 0° 207° (SSW) 3,606 7.0 -6.9°
Reaches altitude 10° 21:59:48 10° 208° (SSW) 2,617 6.2 -7.6°
Maximum altitude 22:05:48 78° 293° (WNW) 909 3.5 -9.0°
Drops below altitude 10° 22:11:36 10° 19° (NNE) 2,533 5.4 -10.4°
Sets 22:14:05 0° 20° (NNE) 3,482 6.1 -11.0°
